,,PA_Meas_PMT16A,,PR_Meas_QMR101_102,,RH_Meas_QMH101,,SR_Meas_QMS101,,TA_Meas_QMH101,,GenWind,,GenWind,
time,status,PA,status,PR,status,RH,status,SR,status,TA,status,DirAvg,status,SpdAvg,
2011-04-30, 00:00:04,VALID,917.487,VALID,0.2,VALID,97.5721,VALID,0,VALID,19.9173,VALID,108,VALID,0.999609,
2011-04-30, 00:01:04,VALID,917.487,VALID,0.2,VALID,97.5645,VALID,0,VALID,19.9173,VALID,108,VALID,0.768359,
2011-04-30, 00:02:04,VALID,917.458,VALID,0.2,VALID,97.5873,VALID,0,VALID,19.8993,VALID,108,VALID,0.515234,
2011-04-30, 00:03:04,VALID,917.443,VALID,0.4,VALID,97.5873,VALID,0,VALID,19.8588,VALID,108,VALID,0.233594,
2011-04-30, 00:04:04,VALID,917.431,VALID,0.2,VALID,97.6026,VALID,0,VALID,19.8798,VALID,108,VALID,0,
2011-04-30, 00:05:04,VALID,917.426,VALID,0.2,VALID,97.5873,VALID,0,VALID,19.8393,VALID,108,VALID,0,
2011-04-30, 00:06:04,VALID,917.391,VALID,0.2,VALID,97.5721,VALID,0,VALID,19.8198,VALID,108,VALID,0,
2011-04-30, 00:07:04,VALID,917.401,VALID,0.2,VALID,97.595,VALID,0,VALID,19.8393,VALID,108,VALID,0,
2011-04-30, 00:08:04,VALID,917.36,VALID,0.2,VALID,97.6026,VALID,0,VALID,19.8393,VALID,108,VALID,0,
2011-04-30, 00:09:04,VALID,917.359,VALID,0.2,VALID,97.595,VALID,0,VALID,19.8783,VALID,108,VALID,0,
2011-04-30, 00:10:04,VALID,917.341,VALID,0.2,VALID,97.5873,VALID,0,VALID,19.8978,VALID,107,VALID,0,
2011-04-30, 00:11:04,VALID,917.316,VALID,0.2,VALID,97.595,VALID,0,VALID,19.8003,VALID,108,VALID,0.951563,
2011-04-30, 00:12:04,VALID,917.373,VALID,0.2,VALID,97.6026,VALID,0,VALID,19.8003,VALID,57,VALID,1.08242,
2011-04-30, 00:13:04,VALID,917.372,VALID,0.4,VALID,97.6102,VALID,0,VALID,19.8003,VALID,326,VALID,1.08477,
2011-04-30, 00:14:04,VALID,917.35,VALID,0.2,VALID,97.595,VALID,0,VALID,19.7808,VALID,358,VALID,0.716016,
2011-04-30, 00:15:04,VALID,917.352,VALID,0.4,VALID,97.595,VALID,0,VALID,19.8003,VALID,358,VALID,0.291016,
2011-04-30, 00:16:04,VALID,917.334,VALID,0.2,VALID,97.595,VALID,0,VALID,19.8213,VALID,358,VALID,0,
2011-04-30, 00:17:04,VALID,917.328,VALID,0.2,VALID,97.595,VALID,0,VALID,19.8408,VALID,358,VALID,0.328906,
2011-04-30, 00:18:04,VALID,917.314,VALID,0.4,VALID,97.6102,VALID,0,VALID,19.8393,VALID,358,VALID,0.646875,
2011-04-30, 00:19:04,VALID,917.299,VALID,0.2,VALID,97.595,VALID,0,VALID,19.8603,VALID,358,VALID,0.520312,
2011-04-30, 00:20:04,VALID,917.282,VALID,0.2,VALID,97.6255,VALID,0,VALID,19.8588,VALID,358,VALID,0.416406,
2011-04-30, 00:21:04,VALID,917.268,VALID,0.4,VALID,97.6178,VALID,0,VALID,19.8393,VALID,358,VALID,0.523828,
2011-04-30, 00:22:04,VALID,917.236,VALID,0.2,VALID,97.595,VALID,0,VALID,19.8393,VALID,358,VALID,0.825391,
2011-04-30, 00:23:04,VALID,917.21,VALID,0,VALID,97.6255,VALID,0,VALID,19.8003,VALID,359,VALID,1.66836,
2011-04-30, 00:24:04,VALID,917.224,VALID,0.2,VALID,97.6026,VALID,0,VALID,19.8018,VALID,21,VALID,1.19453,
2011-04-30, 00:25:04,VALID,917.251,VALID,0.2,VALID,97.6102,VALID,0,VALID,19.7808,VALID,33,VALID,1.23789,
2011-04-30, 00:26:04,VALID,917.209,VALID,0.2,VALID,97.6255,VALID,0,VALID,19.8003,VALID,34,VALID,1.27344,
2011-04-30, 00:27:04,VALID,917.198,VALID,0.2,VALID,97.6026,VALID,0,VALID,19.8003,VALID,11,VALID,1.13945,
2011-04-30, 00:28:04,VALID,917.172,VALID,0.2,VALID,97.6102,VALID,0,VALID,19.8408,VALID,25,VALID,1.04219,
2011-04-30, 00:29:04,VALID,917.18,VALID,0.2,VALID,97.5797,VALID,0,VALID,19.8198,VALID,25,VALID,1.25586,
2011-04-30, 00:30:04,VALID,917.154,VALID,0.2,VALID,97.6026,VALID,0,VALID,19.8003,VALID,25,VALID,0.779688,
2011-04-30, 00:31:04,VALID,917.17,VALID,0,VALID,97.595,VALID,0,VALID,19.8393,VALID,25,VALID,1.08477,
2011-04-30, 00:32:04,VALID,917.135,VALID,0.2,VALID,97.6255,VALID,0,VALID,19.8588,VALID,25,VALID,1.47344,
2011-04-30, 00:33:04,VALID,917.136,VALID,0.2,VALID,97.6178,VALID,0,VALID,19.8393,VALID,5,VALID,1.11328,
2011-04-30, 00:34:04,VALID,917.15,VALID,0.2,VALID,97.6255,VALID,0,VALID,19.8408,VALID,18,VALID,1.90273,
2011-04-30, 00:35:04,VALID,917.096,VALID,0.2,VALID,97.6102,VALID,0,VALID,19.8198,VALID,30,VALID,0.861328,
2011-04-30, 00:36:04,VALID,917.12,VALID,0,VALID,97.595,VALID,0,VALID,19.8393,VALID,40,VALID,0.964063,
2011-04-30, 00:37:04,VALID,917.102,VALID,0.2,VALID,97.6102,VALID,0,VALID,19.8393,VALID,20,VALID,1.38086,
2011-04-30, 00:38:04,VALID,917.107,VALID,0,VALID,97.6102,VALID,0,VALID,19.8393,VALID,13,VALID,1.19414,
2011-04-30, 00:39:04,VALID,917.13,VALID,0.2,VALID,97.6178,VALID,0,VALID,19.8198,VALID,9,VALID,0.666797,
2011-04-30, 00:40:04,VALID,917.116,VALID,0,VALID,97.595,VALID,0,VALID,19.8198,VALID,8,VALID,0.673047,
2011-04-30, 00:41:04,VALID,917.131,VALID,0.2,VALID,97.6102,VALID,0,VALID,19.8393,VALID,8,VALID,0.463281,
2011-04-30, 00:42:04,VALID,917.127,VALID,0,VALID,97.6102,VALID,0,VALID,19.8393,VALID,8,VALID,0.780469,
2011-04-30, 00:43:04,VALID,917.113,VALID,0.2,VALID,97.6178,VALID,0,VALID,19.8603,VALID,8,VALID,0.985937,
2011-04-30, 00:44:04,VALID,917.137,VALID,0.2,VALID,97.6026,VALID,0,VALID,19.8393,VALID,8,VALID,1.01328,
2011-04-30, 00:45:04,VALID,917.137,VALID,0,VALID,97.6102,VALID,0,VALID,19.8588,VALID,8,VALID,1.02773,
2011-04-30, 00:46:04,VALID,917.123,VALID,0.2,VALID,97.6026,VALID,0,VALID,19.8393,VALID,8,VALID,0.359375,
2011-04-30, 00:47:04,VALID,917.149,VALID,0.2,VALID,97.6255,VALID,0,VALID,19.8393,VALID,8,VALID,0.586719,
2011-04-30, 00:48:04,VALID,917.121,VALID,0,VALID,97.6026,VALID,0,VALID,19.8393,VALID,8,VALID,0.273047,
2011-04-30, 00:49:04,VALID,917.103,VALID,0.2,VALID,97.6026,VALID,0,VALID,19.8588,VALID,8,VALID,0.498828,
2011-04-30, 00:50:04,VALID,917.092,VALID,0.2,VALID,97.6178,VALID,0,VALID,19.8393,VALID,8,VALID,0.3,
2011-04-30, 00:51:04,VALID,917.103,VALID,0,VALID,97.6102,VALID,0,VALID,19.8798,VALID,8,VALID,0.847266,
2011-04-30, 00:52:04,VALID,917.061,VALID,0.2,VALID,97.6255,VALID,0,VALID,19.8783,VALID,8,VALID,0.920703,
2011-04-30, 00:53:04,VALID,917.046,VALID,0,VALID,97.6178,VALID,0,VALID,19.8393,VALID,8,VALID,1.12891,
2011-04-30, 00:54:04,VALID,917.011,VALID,0.2,VALID,97.595,VALID,0,VALID,19.8588,VALID,71,VALID,0.748047,
2011-04-30, 00:55:04,VALID,917,VALID,0,VALID,97.6102,VALID,0,VALID,19.8588,VALID,71,VALID,0.615625,
2011-04-30, 00:56:04,VALID,916.987,VALID,0.2,VALID,97.5873,VALID,0,VALID,19.8393,VALID,71,VALID,0.721484,
2011-04-30, 00:57:04,VALID,916.984,VALID,0,VALID,97.6102,VALID,0,VALID,19.8588,VALID,71,VALID,0.911719,
2011-04-30, 00:58:04,VALID,916.999,VALID,0.2,VALID,97.6255,VALID,0,VALID,19.8198,VALID,71,VALID,0.632813,
2011-04-30, 00:59:04,VALID,917.015,VALID,0,VALID,97.6026,VALID,0,VALID,19.7808,VALID,333,VALID,1.14141,
2011-04-30, 01:00:04,VALID,916.992,VALID,0,VALID,97.6255,VALID,0,VALID,19.7613,VALID,329,VALID,0.281641,
2011-04-30, 01:01:04,VALID,917.026,VALID,0.2,VALID,97.6102,VALID,0,VALID,19.7223,VALID,329,VALID,0.978906,
2011-04-30, 01:02:04,VALID,916.998,VALID,0,VALID,97.6255,VALID,0,VALID,19.7613,VALID,10,VALID,0.401172,
2011-04-30, 01:03:04,VALID,917.007,VALID,0.2,VALID,97.6331,VALID,0,VALID,19.7808,VALID,17,VALID,0.273438,
2011-04-30, 01:04:04,VALID,916.975,VALID,0,VALID,97.6178,VALID,0,VALID,19.7418,VALID,17,VALID,0.38125,
2011-04-30, 01:05:04,VALID,916.978,VALID,0,VALID,97.6407,VALID,0,VALID,19.7418,VALID,17,VALID,0.394531,
2011-04-30, 01:06:04,VALID,916.956,VALID,0.2,VALID,97.6102,VALID,0,VALID,19.7208,VALID,17,VALID,0.735547,
2011-04-30, 01:07:04,VALID,916.991,VALID,0,VALID,97.6331,VALID,0,VALID,19.7418,VALID,17,VALID,0.774609,
2011-04-30, 01:08:04,VALID,916.932,VALID,0.2,VALID,97.6255,VALID,0,VALID,19.7418,VALID,17,VALID,0.977734,
2011-04-30, 01:09:04,VALID,916.903,VALID,0,VALID,97.6102,VALID,0,VALID,19.7418,VALID,17,VALID,1.02031,
2011-04-30, 01:10:04,VALID,916.898,VALID,0.2,VALID,97.6483,VALID,0,VALID,19.7823,VALID,17,VALID,0.300391,
2011-04-30, 01:11:04,VALID,916.86,VALID,0.2,VALID,97.6407,VALID,0,VALID,19.7223,VALID,17,VALID,0.980469,
2011-04-30, 01:12:04,VALID,916.851,VALID,0,VALID,97.6178,VALID,0,VALID,19.6833,VALID,9,VALID,1.29219,
2011-04-30, 01:13:04,VALID,916.853,VALID,0.2,VALID,97.6331,VALID,0,VALID,19.6443,VALID,26,VALID,1.25937,
2011-04-30, 01:14:04,VALID,916.813,VALID,0,VALID,97.6407,VALID,0,VALID,19.6248,VALID,334,VALID,1.52383,
2011-04-30, 01:15:04,VALID,916.779,VALID,0.2,VALID,97.6407,VALID,0,VALID,19.6053,VALID,22,VALID,1.08594,
2011-04-30, 01:16:04,VALID,916.778,VALID,0,VALID,97.6255,VALID,0,VALID,19.6248,VALID,22,VALID,0.583984,
2011-04-30, 01:17:04,VALID,916.776,VALID,0.2,VALID,97.6255,VALID,0,VALID,19.5843,VALID,22,VALID,0.801172,
2011-04-30, 01:18:04,VALID,916.774,VALID,0,VALID,97.6483,VALID,0,VALID,19.6248,VALID,22,VALID,0.729297,
2011-04-30, 01:19:04,VALID,916.749,VALID,0,VALID,97.6255,VALID,0,VALID,19.6248,VALID,22,VALID,0.796875,
2011-04-30, 01:20:04,VALID,916.743,VALID,0.2,VALID,97.6712,VALID,0,VALID,19.6443,VALID,22,VALID,1.04219,
2011-04-30, 01:21:04,VALID,916.724,VALID,0,VALID,97.656,VALID,0,VALID,19.6443,VALID,22,VALID,0.636719,
2011-04-30, 01:22:04,VALID,916.736,VALID,0.2,VALID,97.6483,VALID,0,VALID,19.6248,VALID,22,VALID,0.592969,
2011-04-30, 01:23:04,VALID,916.742,VALID,0,VALID,97.656,VALID,0,VALID,19.6053,VALID,340,VALID,0.829687,
2011-04-30, 01:24:04,VALID,916.698,VALID,0.2,VALID,97.6483,VALID,0,VALID,19.5858,VALID,7,VALID,0.778125,
2011-04-30, 01:25:04,VALID,916.692,VALID,0,VALID,97.656,VALID,0,VALID,19.6053,VALID,7,VALID,0.961328,
2011-04-30, 01:26:04,VALID,916.697,VALID,0.2,VALID,97.656,VALID,0,VALID,19.6053,VALID,7,VALID,0.779297,
2011-04-30, 01:27:04,VALID,916.666,VALID,0.2,VALID,97.656,VALID,0,VALID,19.6248,VALID,5,VALID,1.46328,
2011-04-30, 01:28:04,VALID,916.648,VALID,0,VALID,97.6407,VALID,0,VALID,19.6053,VALID,1,VALID,0.907422,
2011-04-30, 01:29:04,VALID,916.609,VALID,0.2,VALID,97.656,VALID,0,VALID,19.6053,VALID,24,VALID,1.51914,
2011-04-30, 01:30:04,VALID,916.619,VALID,0,VALID,97.6331,VALID,0,VALID,19.6053,VALID,21,VALID,1.5957,
2011-04-30, 01:31:04,VALID,916.608,VALID,0.2,VALID,97.6636,VALID,0,VALID,19.6053,VALID,359,VALID,1.10781,
2011-04-30, 01:32:04,VALID,916.642,VALID,0.2,VALID,97.6483,VALID,0,VALID,19.6248,VALID,11,VALID,1.53281,
2011-04-30, 01:33:04,VALID,916.604,VALID,0.2,VALID,97.6712,VALID,0,VALID,19.6248,VALID,354,VALID,1.59023,
2011-04-30, 01:34:04,VALID,916.559,VALID,0.2,VALID,97.656,VALID,0,VALID,19.6443,VALID,351,VALID,1.06289,
2011-04-30, 01:35:04,VALID,916.562,VALID,0.2,VALID,97.6636,VALID,0,VALID,19.6443,VALID,353,VALID,0.748047,
2011-04-30, 01:36:04,VALID,916.518,VALID,0.2,VALID,97.6483,VALID,0,VALID,19.6638,VALID,19,VALID,1.39805,
2011-04-30, 01:37:04,VALID,916.503,VALID,0.2,VALID,97.6483,VALID,0.107441,VALID,19.6638,VALID,357,VALID,0.175781,
2011-04-30, 01:38:04,VALID,916.496,VALID,0.2,VALID,97.6407,VALID,0,VALID,19.6818,VALID,27,VALID,0.791406,
2011-04-30, 01:39:04,VALID,916.479,VALID,0,VALID,97.656,VALID,0,VALID,19.6623,VALID,27,VALID,0.707031,
2011-04-30, 01:40:04,VALID,916.497,VALID,0.2,VALID,97.6636,VALID,0,VALID,19.6623,VALID,44,VALID,1.38867,
2011-04-30, 01:41:04,VALID,916.479,VALID,0,VALID,97.6331,VALID,0.107441,VALID,19.6833,VALID,18,VALID,0.932813,
2011-04-30, 01:42:04,VALID,916.489,VALID,0.2,VALID,97.656,VALID,0,VALID,19.6833,VALID,25,VALID,1.22109,
2011-04-30, 01:43:04,VALID,916.452,VALID,0,VALID,97.6483,VALID,0,VALID,19.6833,VALID,26,VALID,1.60703,
2011-04-30, 01:44:04,VALID,916.454,VALID,0.2,VALID,97.6636,VALID,0,VALID,19.6623,VALID,30,VALID,0.290234,
2011-04-30, 01:45:04,VALID,916.456,VALID,0.2,VALID,97.6636,VALID,0,VALID,19.6428,VALID,255,VALID,1.04102,
2011-04-30, 01:46:04,VALID,916.434,VALID,0,VALID,97.6636,VALID,0,VALID,19.6833,VALID,282,VALID,0.803906,
2011-04-30, 01:47:04,VALID,916.361,VALID,0.2,VALID,97.656,VALID,0.107441,VALID,19.6818,VALID,246,VALID,4.43945,
2011-04-30, 01:48:04,VALID,916.41,VALID,0,VALID,97.656,VALID,0.107441,VALID,19.6833,VALID,42,VALID,2.68633,
2011-04-30, 01:49:04,VALID,916.43,VALID,0.2,VALID,97.6483,VALID,0,VALID,19.6818,VALID,231,VALID,1.25,
2011-04-30, 01:50:04,VALID,916.454,VALID,0,VALID,97.6636,VALID,0,VALID,19.7028,VALID,262,VALID,0.675781,
2011-04-30, 01:51:04,VALID,916.399,VALID,0,VALID,97.656,VALID,0,VALID,19.6818,VALID,262,VALID,1.05625,
2011-04-30, 01:52:04,VALID,916.39,VALID,0.2,VALID,97.6483,VALID,0,VALID,19.7043,VALID,261,VALID,0.967578,
2011-04-30, 01:53:04,VALID,916.429,VALID,0,VALID,97.656,VALID,0,VALID,19.6638,VALID,195,VALID,0.520312,
2011-04-30, 01:54:04,VALID,916.378,VALID,0.2,VALID,97.6712,VALID,0,VALID,19.6623,VALID,226,VALID,1.65273,
2011-04-30, 01:55:04,VALID,916.407,VALID,0,VALID,97.6483,VALID,0,VALID,19.6443,VALID,163,VALID,1.48789,
2011-04-30, 01:56:04,VALID,916.374,VALID,0.2,VALID,97.6712,VALID,0,VALID,19.6443,VALID,87,VALID,0.748438,
2011-04-30, 01:57:04,VALID,916.341,VALID,0,VALID,97.656,VALID,0,VALID,19.6068,VALID,191,VALID,1.36602,
2011-04-30, 01:58:04,VALID,916.346,VALID,0.2,VALID,97.6636,VALID,0,VALID,19.5273,VALID,295,VALID,1.87695,
2011-04-30, 01:59:04,VALID,916.355,VALID,0,VALID,97.6483,VALID,0,VALID,19.5483,VALID,307,VALID,0.88125,
2011-04-30, 02:00:04,VALID,916.354,VALID,0,VALID,97.6712,VALID,0,VALID,19.5273,VALID,355,VALID,1.23203,
2011-04-30, 02:01:04,VALID,916.346,VALID,0.2,VALID,97.6712,VALID,0,VALID,19.5273,VALID,23,VALID,0.773828,
2011-04-30, 02:02:04,VALID,916.309,VALID,0,VALID,97.6712,VALID,0,VALID,19.5273,VALID,34,VALID,1.11914,
2011-04-30, 02:03:04,VALID,916.331,VALID,0.2,VALID,97.6788,VALID,0,VALID,19.4883,VALID,8,VALID,1.09922,
2011-04-30, 02:04:04,VALID,916.293,VALID,0.2,VALID,97.6636,VALID,0,VALID,19.4883,VALID,55,VALID,1.73672,
2011-04-30, 02:05:04,VALID,916.316,VALID,0,VALID,97.656,VALID,0,VALID,19.5288,VALID,288,VALID,0.75,
2011-04-30, 02:06:04,VALID,916.287,VALID,0.2,VALID,97.6712,VALID,0,VALID,19.5093,VALID,41,VALID,0.733594,
2011-04-30, 02:07:04,VALID,916.288,VALID,0,VALID,97.6788,VALID,0,VALID,19.5288,VALID,40,VALID,1.08281,
2011-04-30, 02:08:04,VALID,916.328,VALID,0.2,VALID,97.6712,VALID,0,VALID,19.5483,VALID,40,VALID,0.386328,
2011-04-30, 02:09:04,VALID,916.296,VALID,0,VALID,97.6788,VALID,0,VALID,19.5288,VALID,40,VALID,0.164844,
2011-04-30, 02:10:04,VALID,916.291,VALID,0.2,VALID,97.6941,VALID,0,VALID,19.4883,VALID,40,VALID,1.91289,
2011-04-30, 02:11:04,VALID,916.252,VALID,0.2,VALID,97.6941,VALID,0,VALID,19.4688,VALID,29,VALID,1.47969,
2011-04-30, 02:12:04,VALID,916.266,VALID,0,VALID,97.6865,VALID,0,VALID,19.4103,VALID,245,VALID,0.802734,
2011-04-30, 02:13:04,VALID,916.25,VALID,0.2,VALID,97.6788,VALID,0,VALID,19.4493,VALID,341,VALID,0.945313,
2011-04-30, 02:14:04,VALID,916.251,VALID,0.2,VALID,97.6865,VALID,0,VALID,19.3713,VALID,277,VALID,0.746875,
2011-04-30, 02:15:04,VALID,916.279,VALID,0,VALID,97.6788,VALID,0,VALID,19.3713,VALID,273,VALID,1.07656,
2011-04-30, 02:16:04,VALID,916.248,VALID,0.2,VALID,97.6941,VALID,0,VALID,19.3518,VALID,354,VALID,1.575,
2011-04-30, 02:17:04,VALID,916.247,VALID,0.2,VALID,97.6865,VALID,0,VALID,19.3713,VALID,70,VALID,0.890234,
2011-04-30, 02:18:04,VALID,916.269,VALID,0,VALID,97.7093,VALID,0,VALID,19.3728,VALID,74,VALID,1.14805,
2011-04-30, 02:19:04,VALID,916.244,VALID,0,VALID,97.7017,VALID,0,VALID,19.3518,VALID,351,VALID,1.53008,
2011-04-30, 02:20:04,VALID,916.227,VALID,0.2,VALID,97.6941,VALID,0,VALID,19.3518,VALID,43,VALID,0.639063,
2011-04-30, 02:21:04,VALID,916.245,VALID,0,VALID,97.6941,VALID,0,VALID,19.3323,VALID,223,VALID,1.03008,
2011-04-30, 02:22:04,VALID,916.257,VALID,0.2,VALID,97.7017,VALID,0.107441,VALID,19.3698,VALID,272,VALID,0.664063,
2011-04-30, 02:23:04,VALID,916.226,VALID,0.2,VALID,97.6941,VALID,0.107441,VALID,19.3308,VALID,191,VALID,0.5375,
2011-04-30, 02:24:04,VALID,916.254,VALID,0.2,VALID,97.7169,VALID,0.107441,VALID,19.3503,VALID,191,VALID,0.548437,
2011-04-30, 02:25:04,VALID,916.231,VALID,0.2,VALID,97.6941,VALID,0,VALID,19.3308,VALID,34,VALID,1.04805,
2011-04-30, 02:26:04,VALID,916.259,VALID,0.2,VALID,97.7093,VALID,0.107441,VALID,19.3113,VALID,296,VALID,0.167187,
2011-04-30, 02:27:04,VALID,916.229,VALID,0.4,VALID,97.6941,VALID,0.107441,VALID,19.3308,VALID,296,VALID,0.305859,
2011-04-30, 02:28:04,VALID,916.255,VALID,0.2,VALID,97.7017,VALID,0.107441,VALID,19.3503,VALID,296,VALID,0.148828,
2011-04-30, 02:29:04,VALID,916.263,VALID,0.2,VALID,97.7093,VALID,0.107441,VALID,19.3518,VALID,282,VALID,1.1332,
2011-04-30, 02:30:04,VALID,916.25,VALID,0.2,VALID,97.7246,VALID,0.107441,VALID,19.3113,VALID,34,VALID,0.969531,
2011-04-30, 02:31:04,VALID,916.245,VALID,0.2,VALID,97.7017,VALID,0.107441,VALID,19.3713,VALID,34,VALID,0.762109,
2011-04-30, 02:32:04,VALID,916.227,VALID,0.2,VALID,97.7017,VALID,0.107441,VALID,19.3503,VALID,34,VALID,0.686328,
2011-04-30, 02:33:04,VALID,916.215,VALID,0.2,VALID,97.7169,VALID,0.107441,VALID,19.3308,VALID,34,VALID,0.357812,
2011-04-30, 02:34:04,VALID,916.267,VALID,0.2,VALID,97.7093,VALID,0.107441,VALID,19.3308,VALID,34,VALID,0.476172,
2011-04-30, 02:35:04,VALID,916.215,VALID,0,VALID,97.6941,VALID,0.107441,VALID,19.3503,VALID,279,VALID,0.559375,
2011-04-30, 02:36:04,VALID,916.246,VALID,0.2,VALID,97.7093,VALID,0.107441,VALID,19.3503,VALID,331,VALID,0.777344,
2011-04-30, 02:37:04,VALID,916.245,VALID,0,VALID,97.7093,VALID,0,VALID,19.3518,VALID,331,VALID,0.471094,
2011-04-30, 02:38:04,VALID,916.204,VALID,0.2,VALID,97.7322,VALID,0,VALID,19.3518,VALID,27,VALID,0.505859,
2011-04-30, 02:39:04,VALID,916.218,VALID,0.2,VALID,97.7169,VALID,0,VALID,19.3518,VALID,27,VALID,0.154687,
2011-04-30, 02:40:04,VALID,916.23,VALID,0.2,VALID,97.7246,VALID,0,VALID,19.3713,VALID,27,VALID,0.438672,
2011-04-30, 02:41:04,VALID,916.22,VALID,0.2,VALID,97.7093,VALID,0,VALID,19.3923,VALID,3,VALID,0.486328,
2011-04-30, 02:42:04,VALID,916.193,VALID,0.2,VALID,97.7017,VALID,0,VALID,19.3713,VALID,267,VALID,1.58477,
2011-04-30, 02:43:04,VALID,916.203,VALID,0.2,VALID,97.7246,VALID,0,VALID,19.3713,VALID,271,VALID,0.897266,
2011-04-30, 02:44:04,VALID,916.169,VALID,0.2,VALID,97.7093,VALID,0,VALID,19.3518,VALID,252,VALID,2.15586,
2011-04-30, 02:45:04,VALID,916.174,VALID,0,VALID,97.7246,VALID,0,VALID,19.3518,VALID,272,VALID,1.01172,
2011-04-30, 02:46:04,VALID,916.144,VALID,0.2,VALID,97.7169,VALID,0,VALID,19.3518,VALID,272,VALID,0.280859,
2011-04-30, 02:47:04,VALID,916.144,VALID,0.2,VALID,97.7169,VALID,0,VALID,19.3518,VALID,277,VALID,1.63437,
2011-04-30, 02:48:04,VALID,916.122,VALID,0.2,VALID,97.6941,VALID,0,VALID,19.3518,VALID,250,VALID,1.73789,
2011-04-30, 02:49:04,VALID,916.076,VALID,0.2,VALID,97.7246,VALID,0,VALID,19.3518,VALID,227,VALID,0.694141,
2011-04-30, 02:50:04,VALID,916.128,VALID,0,VALID,97.7246,VALID,0,VALID,19.3518,VALID,241,VALID,0.988672,
2011-04-30, 02:51:04,VALID,916.093,VALID,0.2,VALID,97.7322,VALID,0,VALID,19.3713,VALID,241,VALID,0.492188,
2011-04-30, 02:52:04,VALID,916.102,VALID,0.2,VALID,97.6865,VALID,0,VALID,19.3713,VALID,245,VALID,1.12578,
2011-04-30, 02:53:04,VALID,916.09,VALID,0.2,VALID,97.7169,VALID,0,VALID,19.3713,VALID,253,VALID,1.02813,
2011-04-30, 02:54:04,VALID,916.095,VALID,0.2,VALID,97.7093,VALID,0,VALID,19.3518,VALID,253,VALID,0.681641,
2011-04-30, 02:55:04,VALID,916.064,VALID,0.2,VALID,97.7398,VALID,0,VALID,19.3713,VALID,312,VALID,1.06445,
2011-04-30, 02:56:04,VALID,916.046,VALID,0.2,VALID,97.7246,VALID,0,VALID,19.4313,VALID,307,VALID,0.700391,
2011-04-30, 02:57:04,VALID,916.062,VALID,0.2,VALID,97.7246,VALID,0,VALID,19.4103,VALID,255,VALID,1.32891,
2011-04-30, 02:58:04,VALID,916.07,VALID,0.2,VALID,97.7169,VALID,0,VALID,19.4103,VALID,264,VALID,1.15391,
2011-04-30, 02:59:04,VALID,916.058,VALID,0.2,VALID,97.7093,VALID,0,VALID,19.4103,VALID,264,VALID,0.982422,
2011-04-30, 03:00:04,VALID,916.049,VALID,0.2,VALID,97.7093,VALID,0,VALID,19.4118,VALID,264,VALID,1.00625,
2011-04-30, 03:01:04,VALID,916.058,VALID,0.4,VALID,97.7017,VALID,0,VALID,19.3518,VALID,264,VALID,1.04062,
2011-04-30, 03:02:04,VALID,916.07,VALID,0.2,VALID,97.7169,VALID,0,VALID,19.3713,VALID,264,VALID,1.01094,
2011-04-30, 03:03:04,VALID,916.055,VALID,0.2,VALID,97.7093,VALID,0,VALID,19.4103,VALID,264,VALID,0.442969,
2011-04-30, 03:04:04,VALID,916.032,VALID,0.2,VALID,97.7093,VALID,0,VALID,19.4118,VALID,264,VALID,0.749219,
2011-04-30, 03:05:04,VALID,916.067,VALID,0.2,VALID,97.7093,VALID,0,VALID,19.4118,VALID,264,VALID,0.867969,
2011-04-30, 03:06:04,VALID,916.037,VALID,0.2,VALID,97.6941,VALID,0,VALID,19.3713,VALID,264,VALID,1.02578,
2011-04-30, 03:07:04,VALID,916.048,VALID,0.2,VALID,97.7017,VALID,0,VALID,19.3503,VALID,264,VALID,0.398047,
2011-04-30, 03:08:04,VALID,916.019,VALID,0.2,VALID,97.6941,VALID,0,VALID,19.3308,VALID,264,VALID,0.448047,
2011-04-30, 03:09:04,VALID,916.001,VALID,0.2,VALID,97.7169,VALID,0.107441,VALID,19.3713,VALID,264,VALID,0.293359,
2011-04-30, 03:10:04,VALID,916.014,VALID,0.2,VALID,97.7093,VALID,0,VALID,19.3713,VALID,264,VALID,0.176953,
2011-04-30, 03:11:04,VALID,916.004,VALID,0.2,VALID,97.7093,VALID,0,VALID,19.3308,VALID,264,VALID,0.182422,
2011-04-30, 03:12:04,VALID,915.945,VALID,0.4,VALID,97.7322,VALID,0,VALID,19.3713,VALID,264,VALID,0.139062,
2011-04-30, 03:13:04,VALID,915.94,VALID,0,VALID,97.7169,VALID,0,VALID,19.3698,VALID,264,VALID,0,
2011-04-30, 03:14:04,VALID,915.918,VALID,0.2,VALID,97.7169,VALID,0,VALID,19.3713,VALID,264,VALID,0.2625,
2011-04-30, 03:15:04,VALID,915.943,VALID,0.2,VALID,97.7093,VALID,0,VALID,19.3503,VALID,264,VALID,0.418359,
2011-04-30, 03:16:04,VALID,915.945,VALID,0.2,VALID,97.7322,VALID,0,VALID,19.3518,VALID,264,VALID,0.539453,
2011-04-30, 03:17:04,VALID,915.934,VALID,0,VALID,97.7169,VALID,0,VALID,19.3128,VALID,264,VALID,0.367578,
2011-04-30, 03:18:04,VALID,915.921,VALID,0.2,VALID,97.7093,VALID,0,VALID,19.3128,VALID,264,VALID,0.192578,
2011-04-30, 03:19:04,VALID,915.916,VALID,0,VALID,97.7169,VALID,0,VALID,19.2918,VALID,264,VALID,0.473437,
2011-04-30, 03:20:04,VALID,915.889,VALID,0.2,VALID,97.7246,VALID,0,VALID,19.3113,VALID,264,VALID,0.421484,
2011-04-30, 03:21:04,VALID,915.879,VALID,0,VALID,97.7246,VALID,0.107441,VALID,19.3323,VALID,264,VALID,0.394141,
2011-04-30, 03:22:04,VALID,915.864,VALID,0.2,VALID,97.7169,VALID,0,VALID,19.3323,VALID,264,VALID,0.41875,
2011-04-30, 03:23:04,VALID,915.855,VALID,0,VALID,97.7169,VALID,0.107441,VALID,19.3323,VALID,264,VALID,0.525,
2011-04-30, 03:24:04,VALID,915.823,VALID,0.2,VALID,97.7246,VALID,0,VALID,19.3323,VALID,264,VALID,0.651953,
2011-04-30, 03:25:04,VALID,915.803,VALID,0,VALID,97.7169,VALID,0,VALID,19.3323,VALID,264,VALID,0.917188,
2011-04-30, 03:26:04,VALID,915.807,VALID,0.2,VALID,97.7246,VALID,0,VALID,19.3323,VALID,264,VALID,0.625,
2011-04-30, 03:27:04,VALID,915.814,VALID,0,VALID,97.7398,VALID,0,VALID,19.3518,VALID,264,VALID,0.769141,
2011-04-30, 03:28:04,VALID,915.795,VALID,0.2,VALID,97.7169,VALID,0,VALID,19.3323,VALID,264,VALID,0.628516,
2011-04-30, 03:29:04,VALID,915.784,VALID,0,VALID,97.7246,VALID,0,VALID,19.3128,VALID,264,VALID,0.451953,
2011-04-30, 03:30:04,VALID,915.762,VALID,0.2,VALID,97.7246,VALID,0,VALID,19.3128,VALID,264,VALID,0.0402344,
2011-04-30, 03:31:04,VALID,915.763,VALID,0,VALID,97.7322,VALID,0,VALID,19.3323,VALID,264,VALID,0.34375,
2011-04-30, 03:32:04,VALID,915.776,VALID,0,VALID,97.7169,VALID,0.107441,VALID,19.3128,VALID,264,VALID,0.353906,
2011-04-30, 03:33:04,VALID,915.767,VALID,0,VALID,97.7246,VALID,0,VALID,19.2738,VALID,264,VALID,0.380859,
2011-04-30, 03:34:04,VALID,915.755,VALID,0.2,VALID,97.7322,VALID,0,VALID,19.2528,VALID,264,VALID,0.470313,
2011-04-30, 03:35:04,VALID,915.745,VALID,0,VALID,97.7169,VALID,0,VALID,19.2738,VALID,264,VALID,0.510156,
2011-04-30, 03:36:04,VALID,915.756,VALID,0,VALID,97.7551,VALID,0,VALID,19.2948,VALID,264,VALID,0.365625,
2011-04-30, 03:37:04,VALID,915.733,VALID,0,VALID,97.7322,VALID,0,VALID,19.2738,VALID,264,VALID,0.344141,
2011-04-30, 03:38:04,VALID,915.696,VALID,0,VALID,97.7093,VALID,0,VALID,19.2528,VALID,264,VALID,0.360156,
2011-04-30, 03:39:04,VALID,915.71,VALID,0,VALID,97.7169,VALID,0,VALID,19.2738,VALID,264,VALID,0.313672,
2011-04-30, 03:40:04,VALID,915.695,VALID,0,VALID,97.7398,VALID,0.107441,VALID,19.2948,VALID,264,VALID,0.190234,
2011-04-30, 03:41:04,VALID,915.662,VALID,0.2,VALID,97.7322,VALID,0,VALID,19.2738,VALID,264,VALID,0.206641,
2011-04-30, 03:42:04,VALID,915.672,VALID,0,VALID,97.7322,VALID,0,VALID,19.2543,VALID,264,VALID,0.246484,